Hourly Data Report for September 18, 2007

PETERBOROUGH AWOS
ONTARIO

44°14'00.000" N
78°22'00.000" W
191.40 m
6166420

Download Data

Hourly Data (September 2007)
Hourly Data Report for September 18, 2007
TIME
LST
Temp Definition
°C
Dew Point Definition
°C
Rel Hum Definition
%
Precip. Amount Definition
mm

Wind Dir Definition
10's deg

Wind Spd Definition
km/h
Visibility Definition
km
Stn Press Definition
kPa
Hmdx Definition


Wind Chill Definition


Weather Definition


00:00 3.6 3.0 96   25 4 15.0 100.47      
01:00 3.9 3.2 95     0 15.0 100.45      
02:00 3.3 2.7 96     0 15.0 100.41      
03:00 2.0 1.6 97     0 14.5 100.41      
04:00 1.7 1.4 98   26 7 15.0 100.40      
05:00 0.6 0.6 100     0 15.0 100.44      
06:00 1.1 0.4 95   25 4 15.0 100.54      
07:00 4.1 3.8 98     0 15.0 100.57      
08:00 9.4 7.9 90     0 15.0 100.58      
09:00 14.4 10.8 79   7 4 15.0 100.52      
10:00 18.4 12.5 68   13 7 15.0 100.50      
11:00 20.4 9.8 51   19 15 15.0 100.46      
12:00 21.2 10.1 49   14 15 15.0 100.42      
13:00 21.2 9.4 47   18 13 15.0 100.37      
14:00 21.8 9.5 45   20 15 15.0 100.32      
15:00 20.8 8.0 44   16 19 15.0 100.28      
16:00 20.2 8.1 46   19 13 15.0 100.23      
17:00 19.7 8.8 49   16 13 15.0 100.22      
18:00 16.1 9.6 65   17 7 15.0 100.19      
19:00 14.0 9.7 75   19 6 15.0 100.19      
20:00 10.9 9.7 92     0 15.0 100.20      
21:00 9.1 8.6 97     0 9.7 100.16      
22:00 7.4 7.2 99     0 11.3 100.12      
23:00 6.9 6.6 98   25 6 15.0 100.10      

Notes on Data Quality.

Legend

  • E = Estimated
  • M = Missing
  • NA = Not Available*
  • [empty] = Indicates an unobserved value
Date modified: